Tracking 31027 objects as of 19-Jul-2025
HD Live streaming from Space Station
objects crossing your sky now

ATLAS 2AS CENTAUR R/B

Track ATLAS 2AS CENTAUR R/B now!


NORAD ID: 24937
Int'l Code: 1997-050B
Perigee: 342.2 km
Apogee: 36,372.6 km
Inclination: 18.7 °
Period: 645.0 minutes
Semi major axis: 24728 km
RCS: 13.7884 m2 (large)
Launch date: September 4, 1997
Source: United States (US)
Launch site: AIR FORCE EASTERN TEST RANGE (AFETR)

Note: This is a ROCKET BODY
Your satellite tracking list
ATLAS 5 CENTAUR DEB
Track 1 satellite(s)




NASA's NSSDC Master Catalog

Two Line Element Set (TLE):
1 24937U 97050B   25199.64813677  .00001505  00000-0  18946-2 0  9995
2 24937  18.6617  76.8775 7285225  95.7018 343.2526  2.23258707207546
Source of the keplerian elements: AFSPC